Details From YBTL - Townsville Intl
To YBMK - Mackay
Flight Number -
Tags decoded
Created
Modified
Stats Distance 183 nm / 339 km
Max Altitude 0 ft / 0 m
Waypoints 6
Social Downloads 57
Likes 0
Share

Download

Looking for another format? Having issues loading an existing format? Contact us
Advertisement - Login to hide

Notes

Requested: YBTL TL V153 DAGSI YBMK

Route

YBTL TL V153 DAGSI YBMK

ID Type Via Altitude (ft/m) Position (lat/lon) Dist (leg/tot) Name
O YBTL APT - 0 / 0 -19.25130 / 146.76500 - / 0 nm Townsville Intl
TL DME - 0 / 0 -19.24500 / 146.75800 0 / 0 nm TOWNSVILLE VOR-DME
WALTA FIX V153 (AWY-LO) 0 / 0 -19.69060 / 147.59100 54 / 54 nm
ALBUX FIX V153 (AWY-LO) 0 / 0 -20.02120 / 148.21500 40 / 95 nm
DAGSI FIX V153 (AWY-LO) 0 / 0 -20.70220 / 148.78800 52 / 147 nm
O YBMK APT - 0 / 0 -21.17160 / 149.18100 35 / 183 nm Mackay

Altitude Profile

Advertisement - Login to hide

Weather


0- 5 10 15 20 25 30 35+ Temperature / °C

Clouds and Precipitation
Forecast for 2020-10-31 18:00 UTC. Updated 32 minutes ago

Ground ~20,000 ft ~40,000 ft Winds

YBTL

Details ICAO YBTL (TSV)
Name Townsville Intl
Region Australia
Timezone Australia/Brisbane (UTC+10.0)
Stats Elevation 18 ft / 5 m (AMSL)
Location -19.251300° 146.765000°
Runways 2
Magnetic Variation 7.309° E

METAR

YBTL 311600Z AUTO 36001KT 9999 // SCT022 25/22 Q1012

Decode

TAF

TAF YBTL 311103Z 3112/0112 36008KT 9999 SCT018 SCT025 FM312300 36010KT 9999 FEW030 FM010100 03014KT CAVOK FM010900 03007KT 9999 FEW020

Decode

Departure Runways

ID Width Length Bearing (true/mag) Surface Threshold Overrun Markings Lighting
01 148 ft / 45 m 8,022 ft / 2,445 m 23.99° / 16.69° ASPHALT 0 ft / 0 m 0 ft / 0 m PREC-APP CENTERLINE EDGE THRESHOLD SALS TDZ
07 98 ft / 30 m 3,607 ft / 1,099 m 73.73° / 66.42° ASPHALT 0 ft / 0 m 0 ft / 0 m PREC-APP EDGE THRESHOLD
19 148 ft / 45 m 8,022 ft / 2,445 m 203.99° / 196.68° ASPHALT 0 ft / 0 m 0 ft / 0 m PREC-APP CENTERLINE EDGE THRESHOLD
25 98 ft / 30 m 3,607 ft / 1,099 m 253.73° / 246.42° ASPHALT 0 ft / 0 m 0 ft / 0 m PREC-APP EDGE THRESHOLD

YBMK

Details ICAO YBMK (MKY)
Name Mackay
Region Australia
Timezone Australia/Brisbane (UTC+10.0)
Stats Elevation 18 ft / 5 m (AMSL)
Location -21.171600° 149.181000°
Runways 2
Magnetic Variation 8.338° E

METAR

YBMK 311500Z AUTO 32004KT 9999 // NCD 22/20 Q1012

Decode

TAF

Not found

Destination Runways

ID Width Length Bearing (true/mag) Surface Threshold Overrun Markings Lighting
05 98 ft / 30 m 4,411 ft / 1,344 m 57.80° / 49.46° ASPHALT 194 ft / 59 m 0 ft / 0 m VISUAL EDGE THRESHOLD
14 148 ft / 45 m 6,516 ft / 1,986 m 147.90° / 139.56° ASPHALT 0 ft / 0 m 0 ft / 0 m APP EDGE THRESHOLD
23 98 ft / 30 m 4,411 ft / 1,344 m 237.80° / 229.46° ASPHALT 0 ft / 0 m 0 ft / 0 m VISUAL EDGE THRESHOLD
32 148 ft / 45 m 6,516 ft / 1,986 m 327.90° / 319.56° ASPHALT 0 ft / 0 m 0 ft / 0 m APP EDGE THRESHOLD

Popular Alternatives